Weather History for Sigonella, Italy

Change the Weather History Date:

Tuesday, August 6, 2013

  Actual Average Record
Temperature  
Mean Temperature 84 °F -  
Max Temperature 101 °F 91 °F 108 °F (2012)
Min Temperature 67 °F 66 °F 64 °F (2008)
Cooling Degree Days 19    
Growing Degree Days 34 (Base 50)    
Moisture  
Dew Point 66 °F    
Average Humidity 56    
Maximum Humidity 94    
Minimum Humidity 21    
Precipitation  
Precipitation 0.00 in 0.02 in - ()
Sea Level Pressure  
Sea Level Pressure 29.96 in    
Wind  
Wind Speed 5 mph ()    
Max Wind Speed 14 mph    
Max Gust Speed -    
Visibility 6.5 miles    
Events      
Averages and records for this station are not official NWS values.
T = Trace of Precipitation, MM = Missing Value Source: Averaged Metar Reports

Daily Weather History Graph

Daily Weather History Graph

Search for Another Location

Airport:

Trip Planner

Search our weather history database for the weather conditions in past years. The results will help you decide how hot, cold, wet, or windy it might be!

Date:

Astronomy

Aug. 06, 2013 Rise Set
Actual Time 6:08 AM CEST 8:03 PM CEST
Civil Twilight 5:40 AM CEST 8:31 PM CEST
Nautical Twilight 5:05 AM CEST 9:05 PM CEST
Astronomical Twilight 4:28 AM CEST 9:42 PM CEST
Moon 5:42 AM CEST (8/6) 7:29 PM CEST (8/6)
Length of Visible Light 14h 51m
Length of Day
13h 54m
Waning Crescent, 0% of the Moon is Illuminated
Aug 6
Waning Crescent
Aug 6
New
Aug 14
First Quarter
Aug 21
Full
Aug 28
Last Quarter

Hourly Weather History & Observations

Time (CEST) Temp. Heat Index Dew Point Humidity Pressure Visibility Wind Dir Wind Speed Gust Speed Precip Events Conditions
12:55 AM 77.0 °F - 69.8 °F 78% 29.98 in 6.2 mi NW 5.8 mph - N/A   Partly Cloudy
1:55 AM 77.0 °F - 68.0 °F 74% 29.98 in 6.2 mi WNW 5.8 mph - N/A   Partly Cloudy
2:00 AM 77 °F - 69 °F 68% 29.98 in 6 mi WNW 5.8 mph - -   Scattered Clouds
2:55 AM 75.2 °F - 64.4 °F 69% 29.95 in 6.2 mi West 2.3 mph - N/A   Partly Cloudy
3:55 AM 71.6 °F - 64.4 °F 78% 29.95 in 6.2 mi Calm Calm - N/A   Partly Cloudy
4:55 AM 68.0 °F - 66.2 °F 94% 29.95 in 6.2 mi SSW 3.5 mph - N/A   Scattered Clouds
5:55 AM 68.0 °F - 66.2 °F 94% 29.95 in 5.0 mi West 3.5 mph - N/A   Scattered Clouds
6:55 AM 69.8 °F - 64.4 °F 83% 29.95 in 5.0 mi NW 4.6 mph - N/A   Partly Cloudy
7:55 AM 75.2 °F - 64.4 °F 69% 29.98 in 5.0 mi NW 2.3 mph - N/A   Partly Cloudy
8:00 AM 75 °F - 65 °F 63% 29.98 in 5 mi NW 2.3 mph - -   Mist
8:55 AM 82.4 °F 85.4 °F 68.0 °F 62% 29.98 in 6.2 mi WNW 2.3 mph - N/A   Partly Cloudy
9:55 AM 86.0 °F 90.4 °F 69.8 °F 58% 29.98 in - SW 2.3 mph - N/A   Clear
10:55 AM 91.4 °F 98.4 °F 71.6 °F 52% 29.98 in - SW 3.5 mph - N/A   Clear
11:00 AM 91 °F - 71 °F 43% 29.99 in 8 mi SW 3.5 mph - -  
11:55 AM 96.8 °F 100.7 °F 66.2 °F 37% 29.98 in 6.2 mi ESE 6.9 mph - N/A   Partly Cloudy
12:55 PM 96.8 °F 99.0 °F 64.4 °F 34% 29.98 in 6.2 mi ESE 8.1 mph - N/A   Partly Cloudy
1:55 PM 98.6 °F 100.0 °F 62.6 °F 30% 29.95 in 6.2 mi SE 8.1 mph - N/A   Partly Cloudy
2:00 PM 98 °F - 62 °F 21% 29.96 in 9 mi SE 8.1 mph - -   Scattered Clouds
2:55 PM 100.4 °F 102.4 °F 62.6 °F 29% 29.95 in 6.2 mi East 9.2 mph - N/A   Partly Cloudy
3:55 PM 98.6 °F 101.0 °F 64.4 °F 32% 29.92 in 6.2 mi East 13.8 mph - N/A   Partly Cloudy
4:55 PM 95.0 °F 97.0 °F 64.4 °F 36% 29.92 in 6.2 mi East 13.8 mph - N/A   Partly Cloudy
5:00 PM 94 °F - 64 °F 27% 29.93 in 9 mi East 13.8 mph - -   Scattered Clouds
5:55 PM 93.2 °F 94.9 °F 64.4 °F 38% 29.92 in - East 13.8 mph - N/A   Clear
6:55 PM 89.6 °F 91.1 °F 64.4 °F 43% 29.92 in - East 8.1 mph - N/A   Clear
7:55 PM 86.0 °F 87.3 °F 64.4 °F 48% 29.92 in - East 6.9 mph - N/A   Clear
8:00 PM 86 °F - 65 °F 39% 29.94 in 11 mi East 6.9 mph - -  
8:55 PM 82.4 °F 87.2 °F 71.6 °F 70% 29.95 in - ENE 3.5 mph - N/A   Clear
9:55 PM 82.4 °F 87.2 °F 71.6 °F 70% 29.98 in - North 2.3 mph - N/A   Clear
10:55 PM 80.6 °F 83.9 °F 69.8 °F 70% 29.98 in - North 3.5 mph - N/A   Clear
11:00 PM 80 °F - 71 °F 66% 29.98 in 6 mi North 3.5 mph - -  
11:55 PM 78.8 °F - 66.2 °F 65% 29.98 in - West 5.8 mph - N/A   Clear